| time (UTC) | temp F | wind direction | speed MPH | gust MPH | rain 1hr in | rain 24hr in | rain mn in | humidity % | barometer mb |
| 20260510190333 | 50 | 268 | 9.0 | 18.0 | 0.00 | 0.00 | 0.00 | 55 | 1015.5 |
| 20260510185923 | 50 | 275 | 5.0 | 18.0 | 0.00 | 0.00 | 0.00 | 54 | 1015.3 |
| 20260510184833 | 50 | 286 | 10.0 | 17.0 | 0.00 | 0.00 | 0.00 | 53 | 1015.2 |
| 20260510184438 | 50 | 316 | 9.0 | 18.0 | 0.00 | 0.00 | 0.00 | 52 | 1014.9 |
| 20260510183909 | 50 | 282 | 11.0 | 19.0 | 0.00 | 0.00 | 0.00 | 53 | 1014.9 |
| 20260510183335 | 50 | 271 | 8.0 | 19.0 | 0.00 | 0.00 | 0.00 | 52 | 1014.7 |
| 20260510182833 | 49 | 319 | 5.0 | 17.0 | 0.00 | 0.00 | 0.00 | 54 | 1014.8 |
| 20260510182330 | 49 | 293 | 7.0 | 17.0 | 0.00 | 0.00 | 0.00 | 54 | 1014.6 |
| 20260510181830 | 48 | 264 | 7.0 | 17.0 | 0.00 | 0.00 | 0.00 | 59 | 1014.5 |
| 20260510181358 | 46 | 299 | 7.0 | 16.0 | 0.00 | 0.00 | 0.00 | 68 | 1014.5 |
| 20260510180829 | 46 | 4 | 5.0 | 12.0 | 0.00 | 0.00 | 0.00 | 68 | 1014.4 |
| 20260510180328 | 46 | 306 | 5.0 | 10.0 | 0.00 | 0.00 | 0.00 | 68 | 1014.4 |
| 20260510175827 | 46 | 324 | 4.0 | 7.0 | 0.00 | 0.00 | 0.00 | 68 | 1014.4 |
| 20260510175349 | 46 | 15 | 4.0 | 7.0 | 0.00 | 0.00 | 0.00 | 68 | 1014.4 |
| 20260510174929 | 46 | 357 | 4.0 | 6.0 | 0.00 | 0.00 | 0.00 | 66 | 1014.4 |
| 20260510174438 | 46 | 337 | 4.0 | 7.0 | 0.00 | 0.00 | 0.00 | 67 | 1014.3 |
| 20260510173827 | 46 | 25 | 3.0 | 7.0 | 0.00 | 0.00 | 0.00 | 67 | 1014.4 |
| 20260510173330 | 46 | 35 | 2.0 | 5.0 | 0.00 | 0.00 | 0.00 | 72 | 1014.3 |
| 20260510172835 | 45 | 25 | 1.0 | 5.0 | 0.00 | 0.00 | 0.00 | 68 | 1014.3 |
| 20260510172328 | 45 | 34 | 3.0 | 5.0 | 0.00 | 0.00 | 0.00 | 67 | 1014.4 |
| 20260510171826 | 45 | 12 | 2.0 | 6.0 | 0.00 | 0.00 | 0.00 | 66 | 1014.5 |
| 20260510171324 | 45 | 48 | 2.0 | 6.0 | 0.00 | 0.00 | 0.00 | 67 | 1014.5 |
| 20260510170940 | 45 | 71 | 2.0 | 5.0 | 0.00 | 0.00 | 0.00 | 68 | 1014.5 |
| 20260510170356 | 45 | 8 | 1.0 | 4.0 | 0.00 | 0.00 | 0.00 | 67 | 1014.6 |
| 20260510170236 | 45 | 355 | 2.0 | 4.0 | 0.00 | 0.00 | 0.00 | 68 | 1014.5 |
| 20260510165354 | 45 | 316 | 2.0 | 6.0 | 0.00 | 0.00 | 0.00 | 69 | 1014.6 |
| 20260510164825 | 44 | 358 | 2.0 | 6.0 | 0.00 | 0.00 | 0.00 | 68 | 1014.5 |
| 20260510164319 | 44 | 333 | 3.0 | 7.0 | 0.00 | 0.00 | 0.00 | 69 | 1014.5 |
| 20260510163818 | 44 | 337 | 2.0 | 7.0 | 0.00 | 0.00 | 0.00 | 68 | 1014.5 |
| 20260510163355 | 44 | 354 | 2.0 | 6.0 | 0.00 | 0.00 | 0.00 | 69 | 1014.5 |
| 20260510162317 | 45 | 357 | 3.0 | 10.0 | 0.00 | 0.00 | 0.00 | 67 | 1014.5 |
| 20260510162104 | 46 | 9 | 2.0 | 7.0 | 0.00 | 0.00 | 0.00 | 71 | 1014.6 |
| 20260510161317 | 45 | 34 | 2.0 | 7.0 | 0.00 | 0.00 | 0.00 | 68 | 1014.4 |
| 20260510160816 | 46 | 343 | 2.0 | 9.0 | 0.00 | 0.00 | 0.00 | 69 | 1014.4 |
| 20260510160540 | 45 | 32 | 2.0 | 9.0 | 0.00 | 0.00 | 0.00 | 71 | 1014.4 |
| 20260510155813 | 45 | 19 | 4.0 | 11.0 | 0.00 | 0.00 | 0.00 | 71 | 1014.4 |
| 20260510155311 | 44 | 329 | 4.0 | 11.0 | 0.00 | 0.00 | 0.00 | 70 | 1014.4 |
| 20260510154814 | 45 | 340 | 2.0 | 11.0 | 0.00 | 0.00 | 0.00 | 70 | 1014.4 |
| 20260510154311 | 46 | 19 | 4.0 | 11.0 | 0.00 | 0.00 | 0.00 | 68 | 1014.3 |
| 20260510153808 | 46 | 24 | 4.0 | 9.0 | 0.00 | 0.00 | 0.00 | 70 | 1014.2 |
| 20260510153541 | 46 | 275 | 5.0 | 7.0 | 0.00 | 0.00 | 0.00 | 71 | 1014.1 |
| 20260510152808 | 45 | 316 | 4.0 | 10.0 | 0.00 | 0.00 | 0.00 | 71 | 1014.0 |
| 20260510152308 | 45 | 5 | 3.0 | 10.0 | 0.00 | 0.00 | 0.00 | 72 | 1014.0 |
| 20260510151807 | 44 | 330 | 4.0 | 10.0 | 0.00 | 0.00 | 0.00 | 71 | 1014.0 |
| 20260510151306 | 45 | 345 | 4.0 | 9.0 | 0.00 | 0.00 | 0.00 | 70 | 1013.9 |
| 20260510151032 | 45 | 323 | 4.0 | 10.0 | 0.00 | 0.00 | 0.00 | 70 | 1013.8 |
| 20260510150310 | 45 | 345 | 7.0 | 10.0 | 0.00 | 0.00 | 0.00 | 71 | 1013.7 |
| 20260510145806 | 45 | 30 | 3.0 | 11.0 | 0.00 | 0.00 | 0.00 | 70 | 1013.8 |
| 20260510145533 | 45 | 21 | 6.0 | 11.0 | 0.00 | 0.00 | 0.00 | 69 | 1013.9 |
| 20260510144806 | 46 | 338 | 3.0 | 10.0 | 0.00 | 0.00 | 0.00 | 69 | 1013.7 |
| 20260510144307 | 45 | 1 | 4.0 | 10.0 | 0.00 | 0.00 | 0.00 | 70 | 1013.7 |
| 20260510143806 | 45 | 354 | 4.0 | 10.0 | 0.00 | 0.00 | 0.00 | 70 | 1013.6 |
| 20260510143529 | 45 | 353 | 5.0 | 11.0 | 0.00 | 0.00 | 0.00 | 68 | 1013.6 |
| 20260510142804 | 45 | 25 | 3.0 | 13.0 | 0.00 | 0.00 | 0.00 | 67 | 1013.5 |
| 20260510142306 | 45 | 337 | 4.0 | 13.0 | 0.00 | 0.00 | 0.00 | 69 | 1013.5 |
| 20260510141803 | 45 | 8 | 5.0 | 11.0 | 0.00 | 0.00 | 0.00 | 67 | 1013.5 |
| 20260510141303 | 45 | 11 | 3.0 | 11.0 | 0.00 | 0.00 | 0.00 | 68 | 1013.5 |
| 20260510140803 | 45 | 21 | 5.0 | 11.0 | 0.00 | 0.00 | 0.00 | 67 | 1013.6 |
| 20260510140303 | 45 | 302 | 4.0 | 10.0 | 0.00 | 0.00 | 0.00 | 67 | 1013.6 |
| 20260510135808 | 45 | 0 | 4.0 | 10.0 | 0.00 | 0.00 | 0.00 | 67 | 1013.5 |
| 20260510135306 | 45 | 37 | 3.0 | 10.0 | 0.00 | 0.00 | 0.00 | 66 | 1013.5 |
| 20260510135035 | 45 | 355 | 5.0 | 10.0 | 0.00 | 0.00 | 0.00 | 66 | 1013.5 |
| 20260510134303 | 45 | 329 | 5.0 | 10.0 | 0.00 | 0.00 | 0.00 | 64 | 1013.5 |
| 20260510133804 | 45 | 320 | 3.0 | 10.0 | 0.00 | 0.00 | 0.00 | 61 | 1013.5 |
| 20260510133301 | 45 | 25 | 2.0 | 11.0 | 0.00 | 0.00 | 0.00 | 61 | 1013.5 |
| 20260510132803 | 45 | 334 | 4.0 | 11.0 | 0.00 | 0.00 | 0.00 | 60 | 1013.5 |
| 20260510132301 | 45 | 113 | 6.0 | 11.0 | 0.00 | 0.00 | 0.00 | 59 | 1013.4 |
| 20260510131804 | 44 | 30 | 4.0 | 16.0 | 0.00 | 0.00 | 0.00 | 61 | 1013.4 |
| 20260510131525 | 44 | 340 | 4.0 | 16.0 | 0.00 | 0.00 | 0.00 | 61 | 1013.4 |
| 20260510130804 | 44 | 322 | 9.0 | 14.0 | 0.00 | 0.00 | 0.00 | 60 | 1013.3 |
| 20260510130301 | 44 | 310 | 4.0 | 16.0 | 0.00 | 0.00 | 0.00 | 60 | 1013.2 |
| 20260510125801 | 44 | 299 | 6.0 | 16.0 | 0.00 | 0.00 | 0.00 | 61 | 1013.2 |
| 20260510125301 | 44 | 289 | 6.0 | 14.0 | 0.00 | 0.00 | 0.00 | 60 | 1013.2 |
| 20260510124801 | 44 | 320 | 6.0 | 14.0 | 0.00 | 0.00 | 0.00 | 61 | 1013.2 |
| 20260510124300 | 44 | 309 | 7.0 | 14.0 | 0.00 | 0.00 | 0.00 | 62 | 1013.1 |
| 20260510123802 | 43 | 56 | 4.0 | 15.0 | 0.00 | 0.00 | 0.00 | 64 | 1013.0 |
| 20260510123300 | 43 | 278 | 5.0 | 15.0 | 0.00 | 0.00 | 0.00 | 65 | 1013.0 |
| 20260510122759 | 43 | 341 | 3.0 | 12.0 | 0.00 | 0.00 | 0.00 | 68 | 1012.9 |
| 20260510122259 | 43 | 293 | 4.0 | 15.0 | 0.00 | 0.00 | 0.00 | 69 | 1012.9 |
| 20260510121759 | 42 | 293 | 8.0 | 15.0 | 0.00 | 0.00 | 0.00 | 70 | 1012.9 |
| 20260510121300 | 42 | 312 | 6.0 | 15.0 | 0.00 | 0.00 | 0.00 | 71 | 1012.8 |
| 20260510120759 | 42 | 272 | 6.0 | 11.0 | 0.00 | 0.00 | 0.00 | 74 | 1012.7 |
| 20260510120259 | 42 | 276 | 5.0 | 12.0 | 0.00 | 0.00 | 0.00 | 74 | 1012.6 |
| 20260510120023 | 41 | 269 | 4.0 | 14.0 | 0.00 | 0.00 | 0.00 | 75 | 1012.5 |
| 20260510115258 | 41 | 268 | 7.0 | 14.0 | 0.00 | 0.00 | 0.00 | 76 | 1012.4 |
| 20260510114800 | 41 | 192 | 3.0 | 12.0 | 0.00 | 0.00 | 0.00 | 77 | 1012.4 |
| 20260510114258 | 40 | 257 | 5.0 | 11.0 | 0.00 | 0.00 | 0.00 | 78 | 1012.3 |
| 20260510113758 | 40 | 293 | 6.0 | 12.0 | 0.00 | 0.00 | 0.00 | 79 | 1012.3 |
| 20260510112758 | 39 | 264 | 6.0 | 10.0 | 0.00 | 0.00 | 0.00 | 80 | 1012.0 |
| 20260510112258 | 39 | 293 | 4.0 | 11.0 | 0.00 | 0.00 | 0.00 | 80 | 1011.9 |
| 20260510112029 | 38 | 278 | 5.0 | 11.0 | 0.00 | 0.00 | 0.00 | 81 | 1012.0 |
| 20260510111258 | 38 | 276 | 7.0 | 11.0 | 0.00 | 0.00 | 0.00 | 81 | 1011.8 |
| 20260510110758 | 38 | 265 | 7.0 | 11.0 | 0.00 | 0.00 | 0.00 | 82 | 1011.8 |
| 20260510110525 | 37 | 261 | 6.0 | 10.0 | 0.00 | 0.00 | 0.00 | 82 | 1011.7 |
| 20260510105757 | 37 | 275 | 6.0 | 10.0 | 0.00 | 0.00 | 0.00 | 82 | 1011.6 |
| 20260510104757 | 37 | 247 | 5.0 | 7.0 | 0.00 | 0.00 | 0.00 | 82 | 1011.4 |
| 20260510104301 | 37 | 271 | 5.0 | 7.0 | 0.00 | 0.00 | 0.00 | 82 | 1011.4 |
| 20260510103757 | 37 | 271 | 5.0 | 7.0 | 0.00 | 0.00 | 0.00 | 81 | 1011.3 |
| 20260510103257 | 37 | 285 | 6.0 | 7.0 | 0.00 | 0.00 | 0.00 | 81 | 1011.2 |
| 20260510102758 | 37 | 283 | 5.0 | 7.0 | 0.00 | 0.00 | 0.00 | 81 | 1011.1 |
| 20260510102256 | 37 | 279 | 4.0 | 7.0 | 0.00 | 0.00 | 0.00 | 81 | 1011.0 |
| 20260510101255 | 37 | 274 | 4.0 | 10.0 | 0.00 | 0.00 | 0.00 | 81 | 1010.9 |
| 20260510100756 | 37 | 281 | 5.0 | 9.0 | 0.00 | 0.00 | 0.00 | 81 | 1010.9 |
| 20260510100522 | 37 | 286 | 4.0 | 9.0 | 0.00 | 0.00 | 0.00 | 80 | 1010.8 |
| 20260510095756 | 37 | 226 | 4.0 | 10.0 | 0.00 | 0.00 | 0.00 | 80 | 1010.7 |
| 20260510095256 | 37 | 271 | 6.0 | 10.0 | 0.00 | 0.00 | 0.00 | 80 | 1010.7 |
| 20260510094755 | 37 | 278 | 5.0 | 9.0 | 0.00 | 0.00 | 0.00 | 80 | 1010.6 |
| 20260510094255 | 37 | 271 | 5.0 | 9.0 | 0.00 | 0.00 | 0.00 | 80 | 1010.5 |
| 20260510094041 | 37 | 283 | 5.0 | 9.0 | 0.00 | 0.00 | 0.00 | 79 | 1010.5 |
| 20260510093254 | 37 | 259 | 4.0 | 12.0 | 0.00 | 0.00 | 0.00 | 79 | 1010.4 |
| 20260510092754 | 37 | 264 | 4.0 | 12.0 | 0.00 | 0.00 | 0.00 | 80 | 1010.4 |
| 20260510092521 | 37 | 292 | 6.0 | 13.0 | 0.00 | 0.00 | 0.00 | 79 | 1010.4 |
| 20260510091754 | 37 | 272 | 6.0 | 13.0 | 0.00 | 0.00 | 0.00 | 79 | 1010.3 |
| 20260510091254 | 37 | 272 | 5.0 | 10.0 | 0.00 | 0.00 | 0.00 | 79 | 1010.2 |
| 20260510090753 | 37 | 293 | 5.0 | 10.0 | 0.00 | 0.00 | 0.00 | 79 | 1010.1 |
| 20260510090252 | 37 | 274 | 5.0 | 10.0 | 0.00 | 0.00 | 0.00 | 78 | 1010.1 |
| 20260510085752 | 37 | 262 | 6.0 | 12.0 | 0.00 | 0.00 | 0.00 | 78 | 1010.0 |
| 20260510085252 | 37 | 281 | 6.0 | 12.0 | 0.00 | 0.00 | 0.00 | 78 | 1009.9 |
| 20260510084751 | 37 | 288 | 6.0 | 11.0 | 0.00 | 0.00 | 0.00 | 78 | 1009.9 |
| 20260510084251 | 37 | 275 | 6.0 | 9.0 | 0.00 | 0.00 | 0.00 | 77 | 1009.8 |
| 20260510083751 | 37 | 237 | 5.0 | 9.0 | 0.00 | 0.00 | 0.00 | 77 | 1009.6 |
| 20260510083524 | 37 | 258 | 4.0 | 11.0 | 0.00 | 0.00 | 0.00 | 77 | 1009.5 |
| 20260510082751 | 37 | 255 | 6.0 | 11.0 | 0.00 | 0.00 | 0.00 | 77 | 1009.5 |
| 20260510082251 | 38 | 267 | 6.0 | 10.0 | 0.00 | 0.00 | 0.00 | 77 | 1009.4 |
| 20260510081751 | 38 | 255 | 7.0 | 11.0 | 0.00 | 0.00 | 0.00 | 77 | 1009.4 |
| 20260510081250 | 38 | 264 | 7.0 | 11.0 | 0.00 | 0.00 | 0.00 | 77 | 1009.4 |
| 20260510080753 | 38 | 272 | 7.0 | 11.0 | 0.00 | 0.00 | 0.00 | 76 | 1009.2 |
| 20260510080251 | 38 | 267 | 6.0 | 10.0 | 0.00 | 0.00 | 0.00 | 76 | 1009.2 |
| 20260510080016 | 38 | 283 | 6.0 | 10.0 | 0.00 | 0.00 | 0.00 | 76 | 1009.1 |
| 20260510075250 | 38 | 276 | 6.0 | 10.0 | 0.00 | 0.00 | 0.00 | 75 | 1009.0 |
| 20260510074751 | 38 | 259 | 6.0 | 13.0 | 0.00 | 0.00 | 0.00 | 75 | 1009.0 |
| 20260510074248 | 38 | 257 | 6.0 | 13.0 | 0.00 | 0.00 | 0.00 | 75 | 1008.9 |
| 20260510073749 | 38 | 295 | 7.0 | 10.0 | 0.00 | 0.00 | 0.00 | 74 | 1009.0 |
| 20260510073250 | 38 | 254 | 6.0 | 10.0 | 0.00 | 0.00 | 0.00 | 74 | 1008.9 |
| 20260510072750 | 38 | 258 | 6.0 | 9.0 | 0.00 | 0.00 | 0.00 | 74 | 1008.9 |
| 20260510072251 | 38 | 262 | 5.0 | 7.0 | 0.00 | 0.00 | 0.00 | 73 | 1008.8 |
| 20260510072022 | 38 | 245 | 4.0 | 7.0 | 0.00 | 0.00 | 0.00 | 73 | 1008.6 |
| 20260510071250 | 39 | 286 | 5.0 | 10.0 | 0.00 | 0.00 | 0.00 | 73 | 1008.7 |
| 20260510070748 | 39 | 240 | 6.0 | 10.0 | 0.00 | 0.00 | 0.00 | 73 | 1008.7 |
| 20260510070249 | 39 | 254 | 6.0 | 9.0 | 0.00 | 0.00 | 0.00 | 72 | 1008.6 |
| 20260510065749 | 40 | 250 | 5.0 | 9.0 | 0.00 | 0.00 | 0.00 | 72 | 1008.6 |
| 20260510065516 | 40 | 282 | 5.0 | 9.0 | 0.00 | 0.00 | 0.00 | 72 | 1008.5 |
| 20260510064248 | 40 | 276 | 3.0 | 9.0 | 0.00 | 0.00 | 0.00 | 71 | 1008.5 |
| 20260510063749 | 40 | 286 | 5.0 | 9.0 | 0.00 | 0.00 | 0.00 | 70 | 1008.3 |
| 20260510063248 | 40 | 281 | 4.0 | 10.0 | 0.00 | 0.00 | 0.00 | 70 | 1008.3 |
| 20260510062747 | 40 | 292 | 3.0 | 10.0 | 0.00 | 0.00 | 0.00 | 69 | 1008.3 |
| 20260510062512 | 41 | 283 | 4.0 | 10.0 | 0.00 | 0.00 | 0.00 | 68 | 1008.2 |
| 20260510061750 | 41 | 306 | 4.0 | 10.0 | 0.00 | 0.00 | 0.00 | 67 | 1008.2 |
| 20260510060747 | 41 | 341 | 5.0 | 11.0 | 0.00 | 0.00 | 0.00 | 66 | 1008.2 |
| 20260510060248 | 41 | 316 | 6.0 | 15.0 | 0.00 | 0.00 | 0.00 | 65 | 1008.1 |
| 20260510055742 | 41 | 324 | 6.0 | 15.0 | 0.00 | 0.00 | 0.00 | 65 | 1008.1 |
| 20260510055243 | 42 | 324 | 4.0 | 12.0 | 0.00 | 0.00 | 0.00 | 64 | 1008.1 |
| 20260510054742 | 42 | 302 | 4.0 | 15.0 | 0.00 | 0.00 | 0.00 | 63 | 1008.1 |
| 20260510054242 | 42 | 312 | 7.0 | 15.0 | 0.00 | 0.00 | 0.00 | 62 | 1008.0 |
| 20260510054008 | 42 | 344 | 6.0 | 16.0 | 0.00 | 0.00 | 0.00 | 61 | 1007.9 |
| 20260510053505 | 42 | 341 | 7.0 | 16.0 | 0.00 | 0.00 | 0.00 | 61 | 1007.9 |
| 20260510052736 | 42 | 319 | 9.0 | 16.0 | 0.00 | 0.00 | 0.00 | 61 | 1007.8 |
| 20260510052238 | 42 | 299 | 6.0 | 16.0 | 0.00 | 0.00 | 0.00 | 61 | 1007.9 |
| 20260510051735 | 42 | 326 | 4.0 | 21.0 | 0.00 | 0.00 | 0.00 | 61 | 1007.8 |
| 20260510051234 | 42 | 312 | 8.0 | 21.0 | 0.00 | 0.00 | 0.00 | 61 | 1007.7 |
| 20260510050735 | 42 | 329 | 6.0 | 12.0 | 0.00 | 0.00 | 0.00 | 61 | 1007.7 |
| 20260510050501 | 42 | 317 | 6.0 | 17.0 | 0.00 | 0.00 | 0.00 | 62 | 1007.7 |
| 20260510045728 | 42 | 307 | 8.0 | 17.0 | 0.00 | 0.00 | 0.00 | 62 | 1007.6 |
| 20260510045226 | 42 | 310 | 9.0 | 15.0 | 0.00 | 0.00 | 0.00 | 62 | 1007.7 |
| 20260510044727 | 42 | 306 | 5.0 | 15.0 | 0.00 | 0.00 | 0.00 | 62 | 1007.6 |
| 20260510043722 | 42 | 316 | 4.0 | 15.0 | 0.00 | 0.00 | 0.00 | 62 | 1007.5 |
| 20260510043221 | 42 | 326 | 6.0 | 15.0 | 0.00 | 0.00 | 0.00 | 62 | 1007.4 |
| 20260510042720 | 42 | 282 | 8.0 | 15.0 | 0.00 | 0.00 | 0.00 | 62 | 1007.4 |
| 20260510042220 | 42 | 283 | 4.0 | 13.0 | 0.00 | 0.00 | 0.00 | 62 | 1007.4 |
| 20260510041719 | 42 | 296 | 4.0 | 14.0 | 0.00 | 0.00 | 0.00 | 62 | 1007.4 |
| 20260510041221 | 42 | 329 | 4.0 | 16.0 | 0.00 | 0.00 | 0.00 | 62 | 1007.2 |
| 20260510040717 | 42 | 314 | 5.0 | 16.0 | 0.00 | 0.00 | 0.00 | 62 | 1007.1 |
| 20260510040220 | 42 | 49 | 5.0 | 17.0 | 0.00 | 0.00 | 0.00 | 60 | 1007.0 |
| 20260510035711 | 42 | 354 | 9.0 | 19.0 | 0.00 | 0.00 | 0.00 | 61 | 1007.0 |
| 20260510035214 | 42 | 309 | 9.0 | 19.0 | 0.00 | 0.00 | 0.00 | 62 | 1007.0 |
| 20260510034710 | 42 | 348 | 6.0 | 13.0 | 0.00 | 0.00 | 0.00 | 63 | 1007.1 |
| 20260510034211 | 42 | 310 | 6.0 | 14.0 | 0.00 | 0.00 | 0.00 | 65 | 1007.0 |
| 20260510033711 | 42 | 272 | 3.0 | 14.0 | 0.00 | 0.00 | 0.00 | 66 | 1007.1 |
| 20260510033209 | 42 | 296 | 4.0 | 9.0 | 0.00 | 0.00 | 0.00 | 67 | 1007.0 |
| 20260510032708 | 42 | 293 | 2.0 | 7.0 | 0.00 | 0.00 | 0.00 | 67 | 1007.0 |
| 20260510032208 | 43 | 292 | 4.0 | 7.0 | 0.00 | 0.00 | 0.00 | 67 | 1006.9 |
| 20260510031707 | 43 | 289 | 2.0 | 9.0 | 0.00 | 0.00 | 0.00 | 66 | 1006.9 |
| 20260510031206 | 43 | 293 | 4.0 | 9.0 | 0.00 | 0.00 | 0.00 | 66 | 1007.0 |
| 20260510030705 | 43 | 316 | 6.0 | 11.0 | 0.00 | 0.00 | 0.00 | 65 | 1006.9 |
| 20260510030204 | 44 | 329 | 2.0 | 16.0 | 0.00 | 0.00 | 0.00 | 64 | 1006.9 |
| 20260510025704 | 44 | 344 | 4.0 | 16.0 | 0.00 | 0.00 | 0.00 | 64 | 1006.9 |
| 20260510025203 | 44 | 333 | 4.0 | 12.0 | 0.00 | 0.00 | 0.00 | 64 | 1006.9 |
| 20260510024706 | 44 | 305 | 5.0 | 9.0 | 0.00 | 0.00 | 0.00 | 63 | 1006.9 |
| 20260510024206 | 44 | 7 | 3.0 | 7.0 | 0.00 | 0.00 | 0.00 | 63 | 1006.8 |
| 20260510023705 | 44 | 292 | 3.0 | 7.0 | 0.00 | 0.00 | 0.00 | 63 | 1006.8 |
| 20260510023203 | 44 | 289 | 3.0 | 10.0 | 0.00 | 0.00 | 0.00 | 63 | 1006.7 |
| 20260510022703 | 44 | 358 | 4.0 | 11.0 | 0.00 | 0.00 | 0.00 | 63 | 1006.5 |
| 20260510022203 | 44 | 302 | 4.0 | 11.0 | 0.00 | 0.00 | 0.00 | 63 | 1006.5 |
| 20260510021700 | 44 | 333 | 4.0 | 12.0 | 0.00 | 0.00 | 0.00 | 64 | 1006.5 |
| 20260510021159 | 44 | 306 | 4.0 | 12.0 | 0.00 | 0.00 | 0.00 | 65 | 1006.3 |
| 20260510020923 | 44 | 319 | 3.0 | 9.0 | 0.00 | 0.00 | 0.00 | 65 | 1006.2 |
| 20260510020445 | 45 | 299 | 4.0 | 13.0 | 0.00 | 0.00 | 0.00 | 65 | 1006.0 |
| 20260510015633 | 45 | 306 | 6.0 | 13.0 | 0.00 | 0.00 | 0.00 | 65 | 1005.9 |
| 20260510015404 | 45 | 348 | 4.0 | 13.0 | 0.00 | 0.00 | 0.00 | 65 | 1005.8 |
| 20260510014634 | 45 | 323 | 5.0 | 12.0 | 0.00 | 0.00 | 0.00 | 65 | 1005.6 |
| 20260510014133 | 45 | 310 | 4.0 | 18.0 | 0.00 | 0.00 | 0.00 | 64 | 1005.6 |
| 20260510013637 | 45 | 289 | 7.0 | 18.0 | 0.00 | 0.00 | 0.00 | 64 | 1005.5 |
| 20260510013132 | 45 | 283 | 6.0 | 17.0 | 0.00 | 0.00 | 0.00 | 64 | 1005.4 |
| 20260510012633 | 45 | 330 | 8.0 | 17.0 | 0.00 | 0.00 | 0.00 | 64 | 1005.2 |
| 20260510012132 | 45 | 358 | 4.0 | 15.0 | 0.00 | 0.00 | 0.00 | 64 | 1005.1 |
| 20260510011634 | 45 | 343 | 8.0 | 15.0 | 0.00 | 0.00 | 0.00 | 64 | 1005.0 |
| 20260510011135 | 46 | 347 | 5.0 | 13.0 | 0.00 | 0.00 | 0.00 | 65 | 1005.0 |
| 20260510010631 | 46 | 11 | 5.0 | 14.0 | 0.00 | 0.00 | 0.00 | 65 | 1005.0 |
| 20260510010133 | 46 | 300 | 8.0 | 18.0 | 0.00 | 0.00 | 0.00 | 65 | 1004.9 |
| 20260510005553 | 46 | 302 | 6.0 | 18.0 | 0.00 | 0.00 | 0.00 | 65 | 1004.9 |
| 20260510005053 | 46 | 319 | 8.0 | 16.0 | 0.00 | 0.00 | 0.00 | 66 | 1004.8 |
| 20260510004822 | 46 | 326 | 6.0 | 19.0 | 0.00 | 0.00 | 0.00 | 66 | 1004.7 |
| 20260510004054 | 46 | 307 | 8.0 | 19.0 | 0.00 | 0.00 | 0.00 | 66 | 1004.7 |
| 20260510003553 | 46 | 331 | 5.0 | 19.0 | 0.00 | 0.00 | 0.00 | 67 | 1004.4 |
| 20260510003323 | 47 | 317 | 7.0 | 19.0 | 0.00 | 0.00 | 0.00 | 66 | 1004.4 |
| 20260510002554 | 47 | 343 | 8.0 | 15.0 | 0.00 | 0.00 | 0.00 | 66 | 1004.2 |
| 20260510002053 | 47 | 7 | 6.0 | 16.0 | 0.00 | 0.00 | 0.00 | 66 | 1004.0 |
| 20260510001552 | 47 | 348 | 7.0 | 16.0 | 0.00 | 0.00 | 0.00 | 66 | 1003.9 |
| 20260510001052 | 47 | 330 | 8.0 | 16.0 | 0.00 | 0.00 | 0.00 | 65 | 1003.8 |
| 20260510000551 | 47 | 341 | 7.0 | 20.0 | 0.00 | 0.00 | 0.00 | 65 | 1003.5 |
| 20260510000053 | 47 | 337 | 9.0 | 23.0 | 0.00 | 0.00 | 0.00 | 64 | 1003.3 |
| 20260509235738 | 47 | 28 | 7.0 | 23.0 | 0.00 | 0.00 | 0.00 | 65 | 1003.2 |
| 20260509235005 | 47 | 327 | 8.0 | 18.0 | 0.00 | 0.00 | 0.00 | 65 | 1003.1 |
| 20260509234736 | 48 | 314 | 9.0 | 21.0 | 0.00 | 0.00 | 0.00 | 64 | 1003.0 |
| 20260509234005 | 49 | 341 | 7.0 | 21.0 | 0.00 | 0.00 | 0.00 | 62 | 1002.8 |
| 20260509233505 | 49 | 350 | 9.0 | 27.0 | 0.00 | 0.00 | 0.00 | 60 | 1002.5 |
| 20260509233238 | 50 | 330 | 8.0 | 27.0 | 0.00 | 0.00 | 0.00 | 57 | 1002.5 |
| 20260509232505 | 50 | 307 | 9.0 | 18.0 | 0.00 | 0.00 | 0.00 | 54 | 1002.4 |
| 20260509232005 | 51 | 336 | 6.0 | 20.0 | 0.00 | 0.00 | 0.00 | 51 | 1002.3 |
| 20260509231735 | 52 | 2 | 9.0 | 22.0 | 0.00 | 0.00 | 0.00 | 46 | 1002.1 |
| 20260509231009 | 53 | 343 | 6.0 | 22.0 | 0.00 | 0.00 | 0.00 | 43 | 1002.0 |
| 20260509230508 | 53 | 312 | 9.0 | 22.0 | 0.00 | 0.00 | 0.00 | 40 | 1001.9 |
| 20260509230232 | 54 | 351 | 6.0 | 22.0 | 0.00 | 0.00 | 0.00 | 40 | 1001.7 |
| 20260509225459 | 54 | 340 | 7.0 | 24.0 | 0.00 | 0.00 | 0.00 | 39 | 1001.6 |
| 20260509224728 | 54 | 283 | 11.0 | 26.0 | 0.00 | 0.00 | 0.00 | 39 | 1001.3 |
| 20260509223959 | 54 | 331 | 10.0 | 24.0 | 0.00 | 0.00 | 0.00 | 38 | 1001.3 |
| 20260509223458 | 55 | 358 | 9.0 | 19.0 | 0.00 | 0.00 | 0.00 | 37 | 1001.4 |
| 20260509223226 | 55 | 289 | 7.0 | 24.0 | 0.00 | 0.00 | 0.00 | 37 | 1001.0 |
| 20260509222505 | 56 | 306 | 9.0 | 24.0 | 0.00 | 0.00 | 0.00 | 36 | 1001.0 |
| 20260509221955 | 56 | 305 | 7.0 | 22.0 | 0.00 | 0.00 | 0.00 | 37 | 1000.9 |
| 20260509221454 | 55 | 314 | 11.0 | 22.0 | 0.00 | 0.00 | 0.00 | 37 | 1000.8 |
| 20260509220952 | 55 | 312 | 9.0 | 22.0 | 0.00 | 0.00 | 0.00 | 39 | 1000.8 |
| 20260509220721 | 55 | 257 | 12.0 | 22.0 | 0.00 | 0.00 | 0.00 | 39 | 1000.5 |
| 20260509215951 | 55 | 298 | 9.0 | 22.0 | 0.00 | 0.00 | 0.00 | 40 | 1000.4 |
| 20260509215449 | 55 | 4 | 5.0 | 19.0 | 0.00 | 0.00 | 0.00 | 41 | 1000.3 |
| 20260509214446 | 55 | 299 | 8.0 | 17.0 | 0.00 | 0.00 | 0.00 | 40 | 1000.2 |
| 20260509213946 | 55 | 350 | 4.0 | 20.0 | 0.00 | 0.00 | 0.00 | 40 | 1000.1 |
| 20260509212943 | 55 | 327 | 12.0 | 23.0 | 0.00 | 0.00 | 0.00 | 40 | 999.9 |
| 20260509212710 | 56 | 317 | 8.0 | 22.0 | 0.00 | 0.00 | 0.00 | 41 | 999.8 |
| 20260509211942 | 56 | 305 | 9.0 | 26.0 | 0.00 | 0.00 | 0.00 | 41 | 999.6 |
| 20260509211442 | 56 | 312 | 10.0 | 26.0 | 0.00 | 0.00 | 0.00 | 41 | 999.6 |
| 20260509210942 | 58 | 314 | 9.0 | 22.0 | 0.00 | 0.00 | 0.00 | 36 | 999.4 |
| 20260509210441 | 58 | 286 | 7.0 | 19.0 | 0.00 | 0.00 | 0.00 | 35 | 999.3 |
| 20260509205942 | 58 | 324 | 9.0 | 19.0 | 0.00 | 0.00 | 0.00 | 36 | 999.0 |
| 20260509205436 | 57 | 51 | 8.0 | 17.0 | 0.00 | 0.00 | 0.00 | 39 | 999.1 |
| 20260509204934 | 56 | 348 | 8.0 | 21.0 | 0.00 | 0.00 | 0.00 | 40 | 998.9 |
| 20260509204434 | 56 | 327 | 9.0 | 27.0 | 0.00 | 0.00 | 0.00 | 41 | 998.7 |
| 20260509203935 | 55 | 1 | 5.0 | 27.0 | 0.00 | 0.00 | 0.00 | 44 | 998.5 |
| 20260509203436 | 54 | 9 | 10.0 | 21.0 | 0.00 | 0.00 | 0.00 | 43 | 998.5 |
| 20260509203210 | 55 | 24 | 7.0 | 21.0 | 0.00 | 0.00 | 0.00 | 42 | 998.6 |
| 20260509202437 | 55 | 331 | 9.0 | 19.0 | 0.00 | 0.00 | 0.00 | 41 | 998.4 |
| 20260509202204 | 55 | 345 | 8.0 | 18.0 | 0.00 | 0.00 | 0.00 | 41 | 998.4 |
| 20260509201433 | 55 | 1 | 10.0 | 18.0 | 0.00 | 0.00 | 0.00 | 41 | 998.1 |
| 20260509200933 | 56 | 8 | 8.0 | 20.0 | 0.00 | 0.00 | 0.00 | 40 | 997.9 |
| 20260509200433 | 59 | 305 | 8.0 | 21.0 | 0.00 | 0.00 | 0.00 | 37 | 997.8 |
| 20260509195932 | 59 | 330 | 7.0 | 21.0 | 0.00 | 0.00 | 0.00 | 37 | 997.8 |
| 20260509195701 | 60 | 307 | 6.0 | 21.0 | 0.00 | 0.00 | 0.00 | 41 | 997.7 |
| 20260509194934 | 59 | 343 | 8.0 | 21.0 | 0.00 | 0.00 | 0.00 | 45 | 997.5 |
| 20260509194428 | 58 | 8 | 9.0 | 20.0 | 0.00 | 0.00 | 0.00 | 45 | 997.4 |
| 20260509194152 | 59 | 307 | 11.0 | 21.0 | 0.00 | 0.00 | 0.00 | 44 | 997.4 |
| 20260509193422 | 59 | 307 | 10.0 | 21.0 | 0.00 | 0.00 | 0.00 | 43 | 997.2 |
| 20260509192918 | 60 | 254 | 6.0 | 21.0 | 0.00 | 0.00 | 0.00 | 44 | 997.1 |
| 20260509192418 | 61 | 312 | 9.0 | 21.0 | 0.00 | 0.00 | 0.00 | 43 | 997.1 |
| 20260509191921 | 62 | 274 | 11.0 | 19.0 | 0.00 | 0.00 | 0.00 | 45 | 997.0 |
| 20260509190919 | 61 | 324 | 10.0 | 18.0 | 0.00 | 0.00 | 0.00 | 47 | 996.9 |
| 20260509190647 | 60 | 353 | 8.0 | 21.0 | 0.00 | 0.00 | 0.00 | 48 | 996.9 |